This demonstration page uses our WeatherBlox Daily Observations layout. Learn more.

Left ArrowRight Arrow

38.20091, -84.87328

Hourly Observations for July 16, 2015

Temp ( °F °C ) Dew Point ( °F °C ) Humidity (%) Winds ( mph kmh ) Pressure ( in mb ) Visibility ( mi km ) Precip ( " mm )
12:53 am 00:53 Clear 71 21.7 67 19.4 87 87 ENE 6 9 29.98 1015 9 14 0.00 0.00
1:53 am 01:53 Mostly Clear 70 21.1 65 18.3 84 84 E 6 9 29.99 1016 10 16 0.00 0.00
2:53 am 02:53 Clear 69 20.6 65 18.3 87 87 E 6 9 29.97 1015 8 13 0.00 0.00
3:53 am 03:53 Clear 68 20 65 18.3 90 90 ENE 7 11 29.96 1015 8 13 0.00 0.00
4:53 am 04:53 Clear 67 19.4 64 17.8 91 91 NNE 3 6 29.98 1015 7 11 0.00 0.00
5:53 am 05:53 Clear with Mist and Fog 66 18.9 64 17.8 93 93 N 3 6 29.98 1015 6 10 0.00 0.00
6:53 am 06:53 Sunny with Mist and Fog 66 18.9 63 17.2 90 90 Calm 30.00 1016 4 6 0.00 0.00
7:53 am 07:53 Sunny with Mist and Fog 67 19.4 64 17.8 91 91 Calm 30.02 1017 5 8 0.00 0.00
8:51 am 08:51 Mostly Sunny 70 21 64 18 83 83 ENE 3 6 30.03 1017 7 11 0.00 0.00
8:53 am 08:53 Mostly Sunny 70 21.1 65 18.3 84 84 E 5 7 30.03 1017 7 11 0.00 0.00
9:30 am 09:30 Mostly Cloudy with Haze 70 21.1 65 18.3 84 84 E 6 9 30.03 1017 6 10 0.00 0.00
9:38 am 09:38 Hazy 70 21.1 65 18.3 84 84 E 5 7 30.03 1017 6 10 0.00 0.00
9:53 am 09:53 Partly Cloudy 71 21.7 66 18.9 84 84 E 6 9 30.04 1017 7 11 0.00 0.00
10:53 am 10:53 Partly Cloudy 74 23.3 67 19.4 79 79 VRB 3 6 30.04 1017 10 16 0.00 0.00
11:53 am 11:53 Mostly Sunny 77 25 66 18.9 69 69 E 3 6 30.03 1017 10 16 0.00 0.00
12:53 pm 12:53 Partly Cloudy 80 26.7 66 18.9 62 62 Calm 30.03 1017 10 16 0.00 0.00
1:53 pm 13:53 Mostly Sunny 81 27.2 66 18.9 61 61 Calm 30.01 1016 10 16 0.00 0.00
2:53 pm 14:53 Sunny 83 28.3 67 19.4 59 59 VRB 3 6 30.00 1016 10 16 0.00 0.00
3:53 pm 15:53 Partly Cloudy 82 27.8 66 18.9 58 58 SE 5 7 29.99 1016 10 16 0.00 0.00
4:53 pm 16:53 Mostly Sunny 83 28.3 67 19.4 59 59 VRB 3 6 29.98 1015 10 16 0.00 0.00
5:53 pm 17:53 Mostly Sunny 83 28.3 67 19.4 59 59 E 6 9 29.96 1015 10 16 0.00 0.00
6:53 pm 18:53 Partly Cloudy 83 28.3 67 19.4 59 59 ESE 5 7 29.95 1014 10 16 0.00 0.00
7:53 pm 19:53 Sunny 80 26.7 66 18.9 62 62 SSE 6 9 29.94 1014 10 16 0.00 0.00
8:53 pm 20:53 Sunny 79 26.1 66 18.9 65 65 S 6 9 29.94 1014 10 16 0.00 0.00
9:53 pm 21:53 Clear 76 24.4 67 19.4 74 74 SE 3 6 29.95 1014 10 16 0.00 0.00
10:53 pm 22:53 Clear 73 22.8 67 19.4 81 81 Calm 29.96 1014 10 16 0.00 0.00
11:53 pm 23:53 Clear with Mist and Fog 71 21.7 67 19.4 87 87 Calm 29.96 1015 2 3 0.00 0.00

Powered by AerisWeather